Location: Bouillancy
(49.1149°N, 2.9308°E)
Time: 07:26:20
(UTC+00:00)

Gbstr 26 Del rocket - Pass Details

Date: 30 September 2020
Orbit: 493 x 1264 km, 51.8° (Epoch: 29 October)

Event Time Altitude Azimuth Distance (km) Brightness Sun altitude
Rises 20:00:48 0° 243° (WSW) 3,678 7.5 -25.1°
Reaches altitude 10° 20:03:14 10° 243° (WSW) 2,832 6.8 -25.4°
Maximum altitude 20:10:15 84° 156° (SSE) 1,175 4.2 -26.4°
Enters shadow 20:13:00 45° 73° (ENE) 1,590 4.7 -26.8°
